Home > Weather > Battambang > Past weeks

Flag for Cambodia Past Weather in Battambang, Cambodia — Yesterday and Last 2 Weeks

Now
91 °F

Scattered clouds.


Feels Like: 97 °F
Forecast: 80 / 91 °F
Wind: 7 mph from Southwest

Location: Siemreap

Current Time: May 25, 2016 at 6:06:33 PM

Latest Report: May 25, 2016 at 5:30 PM


Visibility: N/A

Pressure: 29.59 "Hg

Humidity: 49%

Dew Point: 70 °F

Location of BattambangLocation

Past Weather in Battambang — Graph

°F

Battambang Temperature Yesterday

Maximum temperature yesterday: 97 °F (at 2:30 PM)
Minimum temperature yesterday: 81 °F (at 12:00 AM)
Average temperature yesterday: 87 °F

High & Low Weather Summary for the Past Weeks

 TemperatureHumidityPressure
High104 °F (May 11, 2:30 PM)100% (May 13, 5:30 PM)29.86 "Hg (May 13, 5:30 PM)
Low73 °F (May 21, 1:00 AM)31% (May 11, 2:30 PM)29.56 "Hg (May 11, 4:00 PM)
Average88 °F71%29.71 "Hg
* Reported May 10 5:00 PM — May 25 5:00 PM, Battambang, Weather by CustomWeather, © 2016

Note: Actual official high and low records may vary slightly from our data, if they occured in-between our weather recording intervals... More about our weather records

Advertising

Battambang Weather History for the Previous 24 Hours

Scroll right to see more
 ConditionsComfort  
Time TempWeatherWind HumidityBarometerVisibility
5:00 PM
Wed, May 25
93 °FScattered clouds.8 mph47%29.56 "HgN/A
4:30 PM93 °FScattered clouds.8 mph44%29.56 "HgN/A
4:00 PM93 °FScattered clouds.14 mph49%29.59 "HgN/A
3:30 PM93 °FScattered clouds.13 mph53%29.59 "HgN/A
3:00 PM88 °FScattered clouds.18 mph59%29.59 "HgN/A
2:30 PM93 °FScattered clouds.12 mph49%29.59 "HgN/A
2:00 PM95 °FScattered clouds.12 mph44%29.62 "HgN/A
1:30 PM93 °FScattered clouds.12 mph47%29.62 "HgN/A
1:00 PM93 °FScattered clouds.10 mph49%29.65 "HgN/A
12:30 PM95 °FScattered clouds.9 mph41%29.65 "HgN/A
12:00 PM93 °FScattered clouds.9 mph47%29.68 "HgN/A
11:30 AM93 °FScattered clouds.8 mph49%29.68 "HgN/A
11:00 AM90 °FScattered clouds.8 mph63%29.68 "HgN/A
10:30 AM90 °FScattered clouds.6 mph63%29.71 "HgN/A
9:30 AM84 °FScattered clouds.5 mph79%29.71 "HgN/A
9:00 AM84 °FScattered clouds.5 mph79%29.71 "HgN/A
8:30 AM84 °FScattered clouds.6 mph79%29.71 "HgN/A
8:00 AM82 °FScattered clouds.6 mph84%29.68 "HgN/A
7:30 AM82 °FScattered clouds.5 mph84%29.65 "HgN/A
7:00 AM81 °FScattered clouds.3 mph94%29.65 "HgN/A
2:30 AM82 °FPassing clouds.3 mph94%29.65 "Hg5 mi
2:00 AM82 °FPassing clouds.3 mph94%29.65 "Hg5 mi
1:30 AM82 °FPassing clouds.1 mph94%29.65 "Hg5 mi
1:00 AM82 °FPassing clouds.2 mph94%29.65 "Hg5 mi
12:30 AM82 °FPassing clouds.2 mph94%29.68 "Hg5 mi
12:00 AM82 °FPassing clouds.6 mph94%29.68 "Hg5 mi
11:30 PM
Tue, May 24
82 °FPassing clouds.5 mph94%29.68 "Hg5 mi
11:00 PM84 °FPassing clouds.3 mph89%29.68 "Hg5 mi
10:30 PM84 °FPassing clouds.5 mph89%29.71 "Hg5 mi
10:00 PM86 °FPassing clouds.3 mph84%29.68 "Hg5 mi
9:30 PM86 °FWarm.N/A84%29.68 "HgN/A
9:00 PM84 °FPassing clouds.1 mph94%29.68 "Hg5 mi
8:30 PM84 °FPassing clouds.6 mph94%29.65 "Hg5 mi
8:00 PM86 °FPassing clouds.3 mph89%29.65 "Hg5 mi
7:30 PM84 °FPassing clouds.5 mph94%29.62 "Hg5 mi
7:00 PM84 °FPassing clouds.5 mph94%29.62 "Hg5 mi
6:30 PM84 °FPassing clouds.5 mph94%29.59 "Hg5 mi
6:00 PM86 °FScattered clouds.5 mph84%29.59 "Hg5 mi
Weather by CustomWeather, © 2016

See weather overviewHow to use our weather pages